QPF
0.01 0.01 0.03 0.03 0.02 0.02 0.03 0.03 0.05 0.07 0.04 0.03 0.03 0.02 0.02 0.02 0.02 0.03 0.05 0.06 0.05 0.04 0.05 0.04 0.04 0.06 0.07 0.06 0.05 0.04 0.03 0.03 0.03 0.03 0.02 0.01 0.02 0.02 0.01 0.02 0.02 0.03 0.04
0.01 0.01 0.02 0.03 0.02 0.01 0.03 0.04 0.05 0.06 0.05 0.04 0.04 0.04 0.03 0.02 0.02 0.03 0.03 0.05 0.07 0.08 0.08 0.08 0.07 0.06 0.07 0.06 0.05 0.04 0.04 0.04 0.06 0.06 0.04 0.02 0.01 0.00 0.01 0.01 0.01 0.02 0.03
0.01 0.00 0.01 0.01 0.00 0.01 0.03 0.03 0.04 0.05 0.05 0.05 0.06 0.07 0.05 0.03 0.03 0.03 0.03 0.05 0.06 0.08 0.09 0.09 0.09 0.09 0.08 0.06 0.05 0.04 0.04 0.04 0.05 0.05 0.05 0.02 0.01 0.00 0.01 0.01 0.02 0.02 0.02
0.00 0.00 0.01 0.00 0.00 0.01 0.02 0.04 0.05 0.06 0.04 0.04 0.05 0.05 0.04 0.04 0.04 0.05 0.06 0.09 0.08 0.09 0.09 0.09 0.09 0.08 0.06 0.05 0.04 0.04 0.05 0.05 0.04 0.05 0.04 0.03 0.02 0.02 0.01 0.01 0.01 0.02 0.02
0.00 0.00 0.01 0.00 0.01 0.02 0.04 0.04 0.05 0.05 0.05 0.05 0.04 0.03 0.03 0.03 0.04 0.04 0.06 0.09 0.09 0.08 0.08 0.09 0.09 0.07 0.06 0.06 0.05 0.05 0.05 0.05 0.05 0.04 0.03 0.03 0.04 0.03 0.02 0.01 0.01 0.01 0.01
0.00 0.01 0.01 0.01 0.02 0.04 0.05 0.06 0.03 0.03 0.04 0.06 0.06 0.05 0.04 0.04 0.04 0.05 0.06 0.08 0.09 0.07 0.08 0.09 0.08 0.07 0.07 0.08 0.08 0.07 0.07 0.07 0.05 0.03 0.02 0.03 0.04 0.04 0.03 0.02 0.01 0.02 0.02
0.00 0.01 0.01 0.01 0.03 0.04 0.05 0.05 0.03 0.04 0.06 0.06 0.05 0.05 0.05 0.06 0.07 0.07 0.05 0.06 0.07 0.07 0.08 0.08 0.08 0.09 0.09 0.09 0.10 0.12 0.11 0.10 0.07 0.04 0.04 0.05 0.06 0.06 0.06 0.05 0.04 0.03 0.04
0.01 0.01 0.01 0.01 0.02 0.03 0.02 0.03 0.03 0.04 0.05 0.04 0.04 0.05 0.06 0.08 0.08 0.07 0.05 0.05 0.08 0.09 0.07 0.07 0.07 0.08 0.09 0.10 0.13 0.12 0.11 0.10 0.08 0.07 0.07 0.07 0.08 0.10 0.11 0.11 0.10 0.07 0.06
0.01 0.01 0.01 0.01 0.01 0.02 0.02 0.01 0.02 0.03 0.04 0.04 0.05 0.07 0.08 0.07 0.05 0.05 0.05 0.05 0.07 0.08 0.08 0.08 0.06 0.06 0.06 0.08 0.13 0.12 0.09 0.08 0.08 0.07 0.07 0.08 0.13 0.14 0.15 0.15 0.14 0.14 0.14
0.00 0.01 0.01 0.01 0.02 0.02 0.01 0.01 0.02 0.03 0.04 0.05 0.06 0.06 0.07 0.05 0.05 0.06 0.05 0.05 0.06 0.08 0.09 0.09 0.09 0.08 0.08 0.10 0.12 0.10 0.10 0.11 0.12 0.12 0.13 0.11 0.12 0.12 0.12 0.12 0.13 0.15 0.18
0.00 0.01 0.01 0.01 0.02 0.02 0.02 0.02 0.04 0.04 0.05 0.06 0.06 0.05 0.05 0.05 0.06 0.05 0.05 0.06 0.06 0.08 0.08 0.07 0.09 0.10 0.10 0.11 0.09 0.09 0.09 0.08 0.09 0.11 0.13 0.11 0.09 0.07 0.07 0.08 0.09 0.12 0.13
0.01 0.02 0.01 0.01 0.01 0.02 0.03 0.06 0.05 0.05 0.07 0.05 0.04 0.04 0.05 0.06 0.06 0.05 0.05 0.06 0.06 0.06 0.07 0.07 0.08 0.09 0.11 0.12 0.11 0.13 0.13 0.08 0.07 0.09 0.08 0.06 0.05 0.04 0.04 0.06 0.07 0.07 0.07
0.01 0.01 0.01 0.01 0.02 0.02 0.04 0.05 0.04 0.05 0.05 0.05 0.04 0.04 0.06 0.07 0.07 0.05 0.06 0.06 0.06 0.06 0.06 0.07 0.07 0.08 0.09 0.08 0.07 0.07 0.07 0.05 0.05 0.05 0.05 0.04 0.03 0.02 0.03 0.04 0.05 0.04 0.04
0.01 0.01 0.02 0.02 0.02 0.02 0.03 0.02 0.02 0.03 0.03 0.03 0.04 0.03 0.04 0.05 0.07 0.07 0.06 0.06 0.07 0.07 0.08 0.09 0.10 0.11 0.11 0.09 0.07 0.06 0.05 0.05 0.06 0.06 0.05 0.03 0.03 0.02 0.03 0.03 0.03 0.03 0.03
0.01 0.03 0.04 0.03 0.02 0.02 0.02 0.02 0.03 0.03 0.03 0.03 0.03 0.04 0.05 0.07 0.08 0.11 0.11 0.10 0.09 0.10 0.11 0.10 0.11 0.12 0.09 0.07 0.06 0.05 0.05 0.05 0.03 0.04 0.04 0.04 0.04 0.05 0.04 0.04 0.04 0.04 0.04
0.01 0.01 0.02 0.02 0.01 0.01 0.01 0.01 0.02 0.02 0.02 0.03 0.04 0.07 0.08 0.11 0.11 0.10 0.13 0.16 0.14 0.12 0.11 0.10 0.10 0.09 0.07 0.07 0.06 0.06 0.05 0.06 0.05 0.05 0.05 0.04 0.04 0.04 0.04 0.04 0.05 0.05 0.05
0.00 0.00 0.01 0.01 0.01 0.01 0.01 0.01 0.01 0.02 0.03 0.04 0.10 0.13 0.11 0.09 0.10 0.09 0.08 0.10 0.12 0.11 0.09 0.08 0.09 0.09 0.09 0.09 0.07 0.07 0.07 0.07 0.06 0.06 0.05 0.04 0.04 0.04 0.04 0.04 0.04 0.03 0.03
0.00 0.01 0.01 0.02 0.02 0.02 0.02 0.02 0.02 0.02 0.04 0.09 0.18 0.16 0.14 0.11 0.09 0.08 0.08 0.08 0.09 0.09 0.07 0.06 0.07 0.06 0.05 0.08 0.07 0.06 0.06 0.06 0.06 0.06 0.05 0.04 0.04 0.05 0.05 0.05 0.04 0.03 0.03
0.01 0.02 0.04 0.03 0.02 0.02 0.03 0.03 0.04 0.05 0.07 0.09 0.16 0.21 0.23 0.17 0.10 0.07 0.06 0.07 0.09 0.10 0.08 0.07 0.05 0.05 0.05 0.07 0.07 0.06 0.07 0.08 0.08 0.07 0.08 0.09 0.10 0.09 0.07 0.06 0.04 0.04 0.05
0.01 0.01 0.02 0.02 0.03 0.04 0.04 0.03 0.04 0.06 0.07 0.08 0.08 0.07 0.08 0.06 0.05 0.06 0.06 0.07 0.10 0.12 0.12 0.11 0.10 0.09 0.07 0.07 0.06 0.07 0.07 0.09 0.12 0.14 0.15 0.15 0.13 0.11 0.09 0.07 0.06 0.05 0.04
0.01 0.01 0.02 0.01 0.02 0.03 0.03 0.04 0.05 0.06 0.08 0.09 0.06 0.04 0.03 0.03 0.03 0.04 0.04 0.04 0.04 0.06 0.05 0.05 0.07 0.08 0.07 0.07 0.06 0.07 0.08 0.09 0.09 0.09 0.13 0.15 0.13 0.11 0.09 0.06 0.04 0.03 0.02
0.02 0.02 0.02 0.03 0.03 0.04 0.03 0.04 0.06 0.07 0.07 0.05 0.03 0.03 0.02 0.03 0.04 0.04 0.03 0.03 0.03 0.02 0.02 0.02 0.02 0.03 0.03 0.04 0.05 0.08 0.08 0.07 0.06 0.06 0.07 0.09 0.09 0.09 0.07 0.04 0.02 0.01 0.01
0.02 0.02 0.02 0.03 0.03 0.04 0.04 0.05 0.06 0.05 0.04 0.03 0.03 0.03 0.03 0.02 0.01 0.02 0.02 0.02 0.02 0.01 0.01 0.01 0.01 0.01 0.01 0.01 0.02 0.03 0.05 0.06 0.06 0.05 0.04 0.04 0.04 0.04 0.02 0.01 0.01 0.00 0.01
0.03 0.03 0.03 0.03 0.03 0.04 0.04 0.04 0.05 0.05 0.04 0.02 0.02 0.02 0.02 0.01 0.01 0.01 0.01 0.01 0.01 0.01 0.01 0.01 0.01 0.01 0.01 0.01 0.01 0.02 0.02 0.03 0.03 0.03 0.03 0.02 0.02 0.01 0.01 0.00 0.00 0.00 0.00
0.03 0.04 0.04 0.04 0.03 0.03 0.03 0.03 0.03 0.03 0.02 0.01 0.01 0.01 0.01 0.01 0.01 0.01 0.01 0.01 0.01 0.01 0.01 0.01 0.01 0.01 0.01 0.02 0.03 0.02 0.02 0.02 0.02 0.02 0.01 0.01 0.01 0.01 0.00 0.00 0.00 0.00 0.01
0.04 0.04 0.04 0.04 0.03 0.03 0.03 0.02 0.02 0.02 0.02 0.01 0.01 0.01 0.01 0.01 0.00 0.00 0.00 0.01 0.01 0.01 0.01 0.01 0.01 0.01 0.01 0.02 0.03 0.03 0.02 0.02 0.01 0.01 0.01 0.01 0.01 0.00 0.00 0.00 0.01 0.01 0.01
MSLP
1013.83 1014.05 1014.27 1014.49 1014.67 1014.82 1014.95 1015.08 1015.22 1015.39 1015.59 1015.81 1016.03 1016.25 1016.44 1016.57 1016.66 1016.68 1016.67 1016.62 1016.56 1016.51 1016.49 1016.50 1016.57 1016.68 1016.82 1016.99 1017.17 1017.35 1017.51 1017.63 1017.72 1017.76 1017.75 1017.70 1017.61 1017.48 1017.35 1017.22 1017.11 1017.05 1017.04
1013.87 1014.17 1014.47 1014.72 1014.91 1015.03 1015.11 1015.18 1015.27 1015.40 1015.58 1015.81 1016.05 1016.30 1016.50 1016.64 1016.71 1016.70 1016.63 1016.53 1016.42 1016.33 1016.29 1016.29 1016.35 1016.45 1016.58 1016.73 1016.88 1017.02 1017.14 1017.24 1017.30 1017.34 1017.35 1017.32 1017.25 1017.16 1017.04 1016.91 1016.80 1016.70 1016.66
1013.95 1014.35 1014.72 1015.02 1015.21 1015.31 1015.35 1015.35 1015.38 1015.46 1015.62 1015.84 1016.10 1016.36 1016.58 1016.73 1016.79 1016.77 1016.68 1016.54 1016.41 1016.30 1016.23 1016.22 1016.25 1016.33 1016.42 1016.51 1016.60 1016.66 1016.71 1016.74 1016.76 1016.78 1016.79 1016.79 1016.76 1016.72 1016.65 1016.56 1016.46 1016.37 1016.31
1014.12 1014.58 1015.02 1015.37 1015.58 1015.67 1015.65 1015.60 1015.57 1015.60 1015.72 1015.92 1016.18 1016.46 1016.70 1016.87 1016.94 1016.92 1016.82 1016.68 1016.54 1016.41 1016.34 1016.31 1016.32 1016.35 1016.39 1016.40 1016.39 1016.34 1016.28 1016.22 1016.17 1016.14 1016.13 1016.14 1016.16 1016.17 1016.16 1016.13 1016.09 1016.03 1015.99
1014.37 1014.90 1015.40 1015.79 1016.02 1016.09 1016.04 1015.93 1015.84 1015.82 1015.90 1016.08 1016.34 1016.62 1016.88 1017.07 1017.16 1017.16 1017.08 1016.95 1016.81 1016.69 1016.61 1016.57 1016.55 1016.54 1016.50 1016.42 1016.30 1016.13 1015.94 1015.76 1015.60 1015.49 1015.45 1015.45 1015.49 1015.55 1015.61 1015.65 1015.67 1015.68 1015.67
1014.72 1015.29 1015.84 1016.27 1016.52 1016.58 1016.50 1016.35 1016.21 1016.14 1016.18 1016.34 1016.59 1016.87 1017.15 1017.36 1017.48 1017.50 1017.44 1017.32 1017.20 1017.09 1017.01 1016.95 1016.91 1016.86 1016.75 1016.59 1016.35 1016.06 1015.73 1015.42 1015.14 1014.94 1014.82 1014.78 1014.82 1014.91 1015.02 1015.13 1015.22 1015.30 1015.36
1015.13 1015.75 1016.34 1016.79 1017.06 1017.12 1017.03 1016.85 1016.67 1016.56 1016.58 1016.71 1016.95 1017.24 1017.52 1017.75 1017.89 1017.93 1017.88 1017.79 1017.67 1017.57 1017.49 1017.43 1017.37 1017.28 1017.12 1016.88 1016.55 1016.15 1015.70 1015.26 1014.86 1014.54 1014.33 1014.23 1014.23 1014.31 1014.45 1014.60 1014.76 1014.92 1015.06
1015.57 1016.22 1016.84 1017.33 1017.61 1017.69 1017.59 1017.41 1017.21 1017.09 1017.08 1017.21 1017.44 1017.72 1018.01 1018.25 1018.39 1018.44 1018.41 1018.31 1018.20 1018.10 1018.02 1017.95 1017.87 1017.76 1017.56 1017.28 1016.89 1016.40 1015.86 1015.31 1014.80 1014.37 1014.06 1013.87 1013.81 1013.85 1013.98 1014.16 1014.37 1014.59 1014.81
1015.99 1016.67 1017.32 1017.84 1018.15 1018.24 1018.17 1017.99 1017.81 1017.69 1017.68 1017.80 1018.03 1018.32 1018.60 1018.83 1018.98 1019.02 1018.98 1018.88 1018.76 1018.64 1018.55 1018.47 1018.38 1018.26 1018.06 1017.75 1017.33 1016.82 1016.22 1015.60 1015.01 1014.48 1014.07 1013.79 1013.65 1013.63 1013.73 1013.90 1014.14 1014.40 1014.68
1016.33 1017.04 1017.72 1018.27 1018.61 1018.74 1018.70 1018.57 1018.42 1018.33 1018.34 1018.48 1018.71 1018.99 1019.27 1019.50 1019.63 1019.65 1019.59 1019.47 1019.33 1019.19 1019.08 1018.98 1018.89 1018.77 1018.57 1018.28 1017.88 1017.37 1016.77 1016.13 1015.49 1014.90 1014.42 1014.05 1013.83 1013.74 1013.78 1013.92 1014.15 1014.44 1014.76
1016.56 1017.30 1018.01 1018.58 1018.96 1019.14 1019.16 1019.08 1018.99 1018.95 1019.01 1019.18 1019.43 1019.72 1019.99 1020.20 1020.31 1020.32 1020.24 1020.09 1019.92 1019.75 1019.61 1019.51 1019.41 1019.30 1019.13 1018.87 1018.51 1018.05 1017.49 1016.87 1016.24 1015.64 1015.11 1014.69 1014.39 1014.24 1014.21 1014.31 1014.50 1014.78 1015.12
1016.66 1017.42 1018.15 1018.75 1019.16 1019.40 1019.49 1019.49 1019.49 1019.52 1019.64 1019.85 1020.13 1020.43 1020.71 1020.91 1021.01 1021.00 1020.90 1020.73 1020.54 1020.35 1020.19 1020.07 1019.97 1019.87 1019.73 1019.52 1019.23 1018.83 1018.34 1017.79 1017.20 1016.63 1016.10 1015.66 1015.32 1015.11 1015.02 1015.06 1015.21 1015.46 1015.78
1016.62 1017.40 1018.13 1018.75 1019.21 1019.51 1019.68 1019.78 1019.87 1020.00 1020.20 1020.46 1020.77 1021.10 1021.38 1021.59 1021.69 1021.68 1021.57 1021.40 1021.20 1021.00 1020.83 1020.70 1020.60 1020.51 1020.40 1020.24 1020.01 1019.69 1019.29 1018.82 1018.32 1017.81 1017.32 1016.89 1016.54 1016.30 1016.17 1016.15 1016.25 1016.44 1016.72
1016.45 1017.23 1017.96 1018.60 1019.10 1019.47 1019.74 1019.94 1020.14 1020.37 1020.64 1020.97 1021.32 1021.67 1021.98 1022.20 1022.32 1022.33 1022.25 1022.10 1021.91 1021.73 1021.56 1021.43 1021.33 1021.24 1021.15 1021.02 1020.84 1020.60 1020.29 1019.91 1019.50 1019.07 1018.65 1018.27 1017.95 1017.70 1017.54 1017.48 1017.52 1017.65 1017.87
1016.15 1016.91 1017.64 1018.29 1018.84 1019.29 1019.66 1019.98 1020.29 1020.62 1020.98 1021.37 1021.77 1022.15 1022.48 1022.73 1022.88 1022.94 1022.90 1022.80 1022.67 1022.52 1022.38 1022.25 1022.15 1022.06 1021.97 1021.86 1021.70 1021.51 1021.27 1020.98 1020.66 1020.33 1019.99 1019.68 1019.40 1019.17 1019.01 1018.92 1018.91 1018.98 1019.13
1015.72 1016.46 1017.20 1017.87 1018.48 1019.02 1019.49 1019.93 1020.35 1020.78 1021.22 1021.67 1022.10 1022.51 1022.87 1023.16 1023.36 1023.48 1023.52 1023.50 1023.43 1023.34 1023.24 1023.15 1023.05 1022.95 1022.84 1022.72 1022.57 1022.40 1022.20 1021.97 1021.73 1021.49 1021.24 1021.00 1020.79 1020.60 1020.45 1020.35 1020.31 1020.32 1020.39
1015.17 1015.91 1016.65 1017.37 1018.05 1018.68 1019.27 1019.83 1020.36 1020.88 1021.39 1021.88 1022.35 1022.79 1023.17 1023.50 1023.76 1023.95 1024.08 1024.15 1024.18 1024.17 1024.13 1024.06 1023.97 1023.86 1023.72 1023.57 1023.41 1023.23 1023.04 1022.86 1022.68 1022.50 1022.33 1022.17 1022.02 1021.88 1021.77 1021.67 1021.61 1021.58 1021.58
1014.54 1015.29 1016.06 1016.83 1017.60 1018.33 1019.04 1019.71 1020.35 1020.95 1021.52 1022.05 1022.54 1022.99 1023.40 1023.76 1024.07 1024.34 1024.56 1024.73 1024.86 1024.93 1024.96 1024.93 1024.85 1024.73 1024.57 1024.39 1024.19 1023.99 1023.80 1023.63 1023.49 1023.36 1023.26 1023.16 1023.07 1022.99 1022.90 1022.82 1022.75 1022.69 1022.65
1013.87 1014.65 1015.47 1016.32 1017.17 1018.02 1018.84 1019.62 1020.35 1021.02 1021.63 1022.19 1022.69 1023.15 1023.57 1023.95 1024.31 1024.65 1024.95 1025.22 1025.44 1025.60 1025.70 1025.71 1025.66 1025.53 1025.36 1025.14 1024.91 1024.69 1024.49 1024.32 1024.20 1024.11 1024.05 1024.00 1023.97 1023.92 1023.87 1023.81 1023.74 1023.66 1023.59
1013.23 1014.05 1014.94 1015.87 1016.82 1017.77 1018.69 1019.57 1020.38 1021.11 1021.75 1022.33 1022.83 1023.29 1023.71 1024.12 1024.51 1024.90 1025.27 1025.61 1025.91 1026.15 1026.30 1026.36 1026.34 1026.22 1026.04 1025.81 1025.57 1025.33 1025.13 1024.97 1024.86 1024.79 1024.77 1024.76 1024.76 1024.75 1024.72 1024.67 1024.60 1024.52 1024.43
1012.70 1013.57 1014.53 1015.53 1016.57 1017.61 1018.62 1019.57 1020.44 1021.21 1021.88 1022.47 1022.98 1023.43 1023.86 1024.27 1024.68 1025.10 1025.52 1025.91 1026.27 1026.56 1026.76 1026.87 1026.87 1026.78 1026.61 1026.39 1026.16 1025.93 1025.74 1025.60 1025.51 1025.47 1025.47 1025.48 1025.50 1025.51 1025.49 1025.45 1025.38 1025.30 1025.20
1012.34 1013.27 1014.28 1015.35 1016.44 1017.54 1018.61 1019.61 1020.52 1021.32 1022.01 1022.61 1023.12 1023.58 1024.01 1024.43 1024.85 1025.28 1025.72 1026.14 1026.52 1026.85 1027.08 1027.22 1027.25 1027.19 1027.06 1026.88 1026.68 1026.49 1026.33 1026.23 1026.17 1026.16 1026.18 1026.21 1026.24 1026.25 1026.23 1026.19 1026.12 1026.03 1025.92
1012.21 1013.17 1014.21 1015.31 1016.44 1017.56 1018.65 1019.67 1020.60 1021.42 1022.13 1022.74 1023.27 1023.74 1024.18 1024.60 1025.03 1025.47 1025.91 1026.33 1026.72 1027.04 1027.29 1027.44 1027.51 1027.48 1027.40 1027.27 1027.13 1027.00 1026.90 1026.85 1026.83 1026.85 1026.90 1026.94 1026.97 1026.98 1026.95 1026.89 1026.81 1026.71 1026.60
1012.30 1013.28 1014.32 1015.41 1016.52 1017.64 1018.71 1019.73 1020.66 1021.49 1022.22 1022.85 1023.41 1023.90 1024.36 1024.80 1025.24 1025.67 1026.10 1026.50 1026.87 1027.18 1027.42 1027.58 1027.66 1027.67 1027.63 1027.57 1027.50 1027.44 1027.42 1027.42 1027.46 1027.52 1027.59 1027.64 1027.67 1027.67 1027.62 1027.55 1027.44 1027.33 1027.21
1012.59 1013.54 1014.55 1015.60 1016.67 1017.74 1018.78 1019.77 1020.68 1021.52 1022.26 1022.93 1023.52 1024.06 1024.56 1025.02 1025.47 1025.90 1026.31 1026.69 1027.02 1027.29 1027.51 1027.65 1027.74 1027.77 1027.78 1027.78 1027.78 1027.80 1027.85 1027.93 1028.02 1028.12 1028.20 1028.27 1028.29 1028.28 1028.21 1028.12 1028.00 1027.86 1027.73
1013.00 1013.91 1014.86 1015.84 1016.83 1017.83 1018.81 1019.76 1020.65 1021.49 1022.26 1022.97 1023.61 1024.21 1024.75 1025.26 1025.73 1026.16 1026.55 1026.89 1027.18 1027.41 1027.58 1027.70 1027.78 1027.83 1027.87 1027.92 1027.98 1028.07 1028.18 1028.31 1028.46 1028.59 1028.70 1028.77 1028.79 1028.76 1028.69 1028.58 1028.45 1028.30 1028.16
Thickness
5804 5802 5799 5796 5791 5786 5781 5778 5774 5770 5765 5760 5756 5753 5751 5751 5751 5750 5748 5747 5746 5744 5742 5741 5740 5739 5738 5738 5737 5735 5734 5733 5734 5731 5731 5734 5736 5736 5736 5736 5736 5735 5735
5802 5802 5800 5798 5793 5788 5784 5780 5776 5772 5769 5765 5761 5758 5755 5753 5752 5751 5750 5748 5746 5745 5743 5742 5741 5740 5739 5738 5737 5735 5733 5733 5733 5730 5726 5725 5728 5733 5736 5736 5735 5735 5735
5804 5803 5801 5799 5796 5791 5787 5784 5779 5775 5771 5768 5764 5760 5756 5754 5752 5750 5749 5749 5747 5745 5744 5742 5741 5740 5739 5738 5737 5736 5734 5731 5731 5731 5727 5722 5720 5725 5731 5733 5734 5734 5733
5810 5806 5804 5800 5798 5796 5792 5787 5782 5777 5774 5770 5766 5761 5756 5753 5753 5752 5750 5749 5748 5747 5745 5743 5742 5740 5739 5738 5738 5737 5735 5733 5729 5729 5729 5728 5726 5721 5723 5728 5731 5732 5731
5813 5811 5809 5806 5802 5798 5794 5789 5784 5779 5775 5771 5768 5764 5760 5757 5755 5753 5750 5749 5748 5747 5745 5743 5742 5740 5739 5738 5738 5737 5735 5733 5731 5729 5728 5726 5725 5723 5720 5720 5724 5727 5728
5818 5815 5813 5808 5803 5799 5795 5789 5784 5780 5777 5773 5770 5766 5762 5759 5755 5752 5750 5749 5748 5747 5746 5744 5742 5741 5739 5738 5737 5736 5735 5734 5732 5730 5729 5726 5724 5722 5720 5718 5719 5720 5724
5820 5816 5812 5807 5803 5798 5795 5791 5785 5781 5778 5774 5771 5769 5765 5761 5757 5754 5751 5749 5748 5747 5746 5745 5743 5741 5740 5738 5737 5736 5734 5733 5731 5730 5729 5728 5726 5725 5722 5719 5717 5716 5719
5821 5818 5815 5810 5806 5801 5796 5791 5786 5782 5779 5775 5772 5770 5767 5763 5760 5758 5755 5752 5750 5749 5748 5746 5744 5742 5740 5739 5737 5736 5734 5733 5731 5731 5729 5728 5727 5725 5723 5720 5716 5713 5713
5821 5819 5816 5811 5808 5803 5799 5794 5788 5783 5780 5777 5773 5769 5767 5764 5762 5759 5756 5753 5751 5749 5748 5746 5744 5742 5740 5739 5737 5735 5733 5732 5730 5729 5728 5727 5726 5725 5723 5721 5718 5713 5708
5817 5817 5815 5811 5808 5804 5799 5794 5789 5785 5781 5777 5773 5770 5767 5765 5763 5760 5756 5753 5751 5749 5747 5745 5743 5741 5740 5738 5736 5734 5732 5730 5728 5727 5726 5725 5725 5724 5722 5720 5718 5715 5710
5813 5813 5812 5810 5807 5803 5798 5793 5788 5783 5779 5776 5772 5769 5766 5764 5762 5759 5757 5754 5751 5748 5746 5744 5742 5739 5737 5736 5734 5732 5730 5728 5726 5725 5724 5723 5722 5721 5719 5718 5715 5712 5708
5811 5810 5808 5806 5802 5798 5795 5791 5788 5782 5779 5775 5771 5767 5764 5761 5759 5757 5755 5752 5749 5747 5745 5742 5739 5737 5735 5733 5731 5729 5728 5726 5723 5722 5720 5719 5718 5717 5715 5713 5711 5708 5705
5805 5804 5802 5800 5796 5794 5792 5788 5785 5780 5777 5773 5769 5765 5761 5758 5756 5754 5752 5749 5746 5744 5742 5739 5736 5733 5732 5730 5728 5726 5724 5722 5720 5718 5717 5715 5713 5711 5710 5708 5705 5702 5699
5799 5798 5796 5795 5792 5790 5788 5784 5781 5778 5773 5769 5765 5761 5759 5756 5753 5750 5748 5745 5742 5739 5737 5735 5732 5730 5728 5726 5724 5722 5720 5718 5716 5714 5713 5711 5709 5707 5705 5702 5699 5696 5692
5794 5793 5791 5790 5788 5785 5782 5780 5776 5773 5769 5764 5760 5757 5755 5752 5748 5746 5743 5741 5737 5735 5732 5729 5727 5726 5724 5722 5720 5718 5716 5713 5710 5708 5707 5705 5703 5701 5699 5696 5692 5689 5685
5789 5789 5788 5786 5783 5781 5778 5775 5771 5768 5764 5759 5755 5753 5750 5747 5743 5739 5737 5734 5731 5728 5725 5723 5721 5719 5718 5716 5715 5713 5710 5707 5704 5702 5699 5698 5695 5693 5691 5688 5685 5682 5678
5786 5785 5784 5782 5779 5777 5774 5770 5766 5762 5758 5753 5750 5747 5744 5740 5737 5734 5730 5727 5724 5721 5718 5716 5714 5712 5711 5709 5708 5706 5704 5701 5697 5695 5692 5690 5688 5685 5682 5679 5676 5672 5669
5782 5781 5780 5778 5775 5773 5769 5766 5762 5757 5753 5748 5744 5741 5738 5734 5730 5727 5723 5720 5717 5714 5712 5710 5707 5705 5703 5702 5701 5700 5697 5694 5690 5687 5684 5682 5678 5676 5673 5670 5665 5661 5657
5781 5779 5777 5774 5770 5767 5764 5760 5755 5751 5747 5742 5739 5735 5732 5728 5724 5720 5716 5713 5710 5707 5705 5703 5700 5698 5695 5694 5693 5692 5689 5685 5681 5678 5675 5673 5669 5666 5664 5661 5655 5650 5646
5777 5774 5772 5768 5764 5760 5758 5753 5749 5745 5741 5737 5734 5730 5726 5722 5718 5713 5710 5706 5704 5700 5698 5695 5693 5691 5688 5687 5686 5685 5682 5677 5673 5669 5665 5662 5659 5656 5653 5650 5646 5640 5635
5771 5770 5766 5762 5758 5755 5752 5747 5743 5739 5736 5732 5728 5724 5720 5715 5711 5707 5703 5700 5697 5694 5691 5688 5685 5683 5681 5680 5678 5676 5674 5670 5665 5661 5656 5652 5649 5646 5643 5639 5635 5630 5626
5764 5763 5759 5754 5751 5750 5746 5741 5736 5733 5730 5726 5721 5716 5713 5709 5705 5701 5697 5694 5691 5687 5684 5681 5678 5675 5673 5672 5670 5668 5665 5662 5657 5652 5647 5643 5640 5636 5633 5628 5624 5621 5617
5757 5755 5752 5747 5744 5742 5741 5735 5730 5727 5723 5718 5713 5709 5705 5701 5697 5694 5691 5687 5684 5680 5677 5674 5671 5667 5665 5663 5661 5659 5656 5653 5649 5643 5638 5634 5630 5626 5622 5618 5614 5611 5608
5749 5747 5744 5739 5735 5734 5732 5729 5724 5720 5716 5710 5705 5701 5698 5693 5689 5686 5684 5681 5677 5674 5670 5667 5664 5660 5658 5655 5653 5650 5647 5643 5639 5634 5629 5625 5621 5617 5612 5608 5604 5600 5596
5742 5740 5737 5733 5728 5726 5723 5721 5718 5714 5708 5703 5699 5695 5691 5686 5681 5677 5674 5672 5670 5667 5665 5661 5658 5655 5651 5648 5646 5643 5639 5635 5630 5625 5621 5616 5611 5606 5602 5598 5594 5590 5586
5734 5732 5730 5726 5723 5719 5716 5713 5710 5707 5702 5697 5692 5688 5683 5679 5675 5671 5666 5663 5662 5660 5658 5655 5652 5648 5645 5642 5638 5635 5631 5626 5622 5618 5612 5606 5602 5597 5593 5589 5585 5581 5577